Location: Peebles
(55.6412°N, 3.1714°W)
Time: 21:28:04
(UTC+00:00)

deb Agena D - Pass Details

Date: 25 September 2023
Orbit: 794 x 979 km, 99.8° (Epoch: 28 November)

Event Time Altitude Azimuth Distance (km) Brightness Sun altitude
Rises 04:29:41 0° 18° (NNE) 3,692 10.3 -21.3°
Reaches altitude 10° 04:33:35 10° 354° (N) 2,746 9.2 -20.9°
Maximum altitude 04:36:18 13° 328° (NNW) 2,501 8.6 -20.5°
Drops below altitude 10° 04:39:01 10° 301° (WNW) 2,732 8.6 -20.2°
Enters shadow 04:39:15 10° 299° (WNW) 2,771 8.6 -20.2°
